Location: Mentone
(34.5413°N, 85.5351°W)
Time: 10:42:56
(UTC-05:00)

Tiros 1 despin weight - All Passes

Search period start: 18 September 2014 00:00
Search period end: 28 September 2014 00:00
Orbit: 601 x 652 km, 48.2° (Epoch: 17 September)

Date Brightness Start Highest point End Pass type
(mag) Time Alt. Az. Time Alt. Az. Time Alt. Az.
18 Sep - 01:14:42 10° NW 01:17:13 14° N 01:19:45 10° NNE night (unlit)
18 Sep - 02:56:43 10° NNW 03:00:19 22° NNE 03:03:57 10° ENE visible
18 Sep - 04:37:57 10° NW 04:42:37 80° NE 04:47:19 10° SE visible
18 Sep - 06:21:06 10° W 06:23:56 16° SW 06:26:46 10° SSW daylight
18 Sep - 20:26:18 10° S 20:29:57 25° SE 20:33:39 10° ENE visible
18 Sep - 22:07:08 10° WSW 22:11:28 50° NNW 22:15:53 10° NE night (unlit)
18 Sep - 23:51:00 10° NW 23:54:02 17° NNW 23:57:07 10° NNE night (unlit)
19 Sep - 01:34:31 10° NNW 01:37:13 15° N 01:39:57 10° NE night (unlit)
19 Sep - 03:15:52 10° NW 03:20:03 33° NNE 03:24:18 10° E visible
19 Sep - 04:57:27 10° WNW 05:01:56 48° SW 05:06:27 10° SSE visible
19 Sep - 20:44:47 10° SW 20:49:08 58° SE 20:53:32 10° ENE visible
19 Sep - 22:27:11 10° W 22:31:05 29° NNW 22:35:02 10° NE night (unlit)
20 Sep - 00:11:27 10° NW 00:14:00 15° N 00:16:34 10° NNE night (unlit)
20 Sep - 01:53:52 10° NNW 01:57:09 19° NNE 02:00:29 10° ENE night (unlit)
20 Sep - 03:35:03 10° NW 03:39:37 60° NE 03:44:14 10° ESE visible
20 Sep - 05:17:30 10° W 05:21:05 22° SW 05:24:41 10° S visible
20 Sep - 19:24:07 10° S 19:27:08 18° SE 19:30:10 10° E visible
20 Sep - 21:04:04 10° WSW 21:08:29 67° NW 21:12:57 10° NE visible
20 Sep - 22:47:36 10° WNW 22:50:52 20° NNW 22:54:11 10° NNE night (unlit)
21 Sep - 00:31:29 10° NNW 00:34:00 15° N 00:36:33 10° NE night (unlit)
21 Sep - 02:13:01 10° NW 02:16:57 27° NNE 02:20:56 10° E night (unlit)
21 Sep - 03:54:24 10° WNW 03:59:00 67° SW 04:03:38 10° SE visible
21 Sep - 19:42:05 10° SSW 19:46:14 41° SE 19:50:26 10° ENE visible
21 Sep - 21:23:55 10° W 21:28:00 35° NNW 21:32:09 10° NE visible
21 Sep - 23:08:06 10° NW 23:10:47 15° N 23:13:29 10° NNE night (unlit)
22 Sep - 00:50:58 10° NNW 00:53:58 17° NNE 00:56:58 10° NE night (unlit)
22 Sep - 02:32:09 10° NW 02:36:34 46° NNE 02:41:03 10° ESE night (unlit)
22 Sep - 04:14:09 10° WNW 04:18:12 30° SW 04:22:17 10° SSE visible
22 Sep - 18:22:25 10° SSE 18:24:19 13° SE 18:26:13 10° ESE daylight
22 Sep - 20:01:04 10° SW 20:05:30 90° NW 20:09:59 10° NE visible
22 Sep - 21:44:11 10° WNW 21:47:42 22° NNW 21:51:16 10° NNE visible
22 Sep - 23:28:20 10° NNW 23:30:45 14° N 23:33:12 10° NNE night (unlit)
23 Sep - 01:10:10 10° NNW 01:13:48 23° NNE 01:17:29 10° ENE night (unlit)
23 Sep - 02:51:25 10° NW 02:56:01 90° NNE 03:00:40 10° SE night (unlit)
23 Sep - 04:34:59 10° W 04:37:16 14° SW 04:39:33 10° SSW night (unlit)
23 Sep - 18:39:32 10° SSW 18:43:21 29° SE 18:47:12 10° ENE daylight
23 Sep - 20:20:41 10° WSW 20:24:56 45° NNW 20:29:14 10° NE visible
23 Sep - 22:04:41 10° NW 22:07:33 17° NNW 22:10:27 10° NNE visible
23 Sep - 23:48:01 10° NNW 23:50:44 15° N 23:53:28 10° NE night (unlit)
24 Sep - 01:29:16 10° NW 01:33:29 36° NNE 01:37:45 10° E night (unlit)
24 Sep - 03:10:57 10° WNW 03:15:17 42° SW 03:19:39 10° SSE night (unlit)
24 Sep - 18:58:09 10° SW 19:02:32 66° SE 19:06:57 10° ENE visible
24 Sep - 20:40:47 10° W 20:44:33 26° NNW 20:48:21 10° NE visible
24 Sep - 22:25:04 10° NW 22:27:30 14° N 22:29:56 10° NNE visible
25 Sep - 00:07:17 10° NNW 00:10:37 20° NNE 00:13:59 10° ENE night (unlit)
25 Sep - 01:48:27 10° NW 01:52:59 67° NE 01:57:36 10° ESE night (unlit)
25 Sep - 03:31:09 10° W 03:34:23 19° SW 03:37:40 10° S night (unlit)
25 Sep - 17:37:10 10° S 17:40:28 21° SE 17:43:47 10° E daylight
25 Sep - 19:17:31 10° WSW 19:21:53 59° NW 19:26:18 10° NE visible
25 Sep - 21:01:12 10° WNW 21:04:20 18° NNW 21:07:28 10° NNE visible
25 Sep - 22:44:59 10° NNW 22:47:28 14° N 22:49:59 10° NE visible
26 Sep - 00:26:23 10° NW 00:30:21 29° NNE 00:34:22 10° E night (unlit)
26 Sep - 02:07:50 10° WNW 02:12:19 58° SW 02:16:51 10° SE night (unlit)
26 Sep - 17:55:20 10° SSW 17:59:35 47° SE 18:03:50 10° ENE daylight
26 Sep - 19:37:25 10° W 19:41:25 32° NNW 19:45:26 10° NE visible
26 Sep - 21:21:41 10° NW 21:24:14 15° N 21:26:47 10° NNE visible
26 Sep - 23:04:22 10° NNW 23:07:23 17° NNE 23:10:26 10° ENE night (unlit)
27 Sep - 00:45:30 10° NW 00:49:55 51° NNE 00:54:24 10° ESE night (unlit)
27 Sep - 02:27:40 10° WNW 02:31:29 26° SW 02:35:20 10° S night (unlit)
27 Sep - 16:35:08 10° SSE 16:37:35 15° SE 16:40:02 10° E daylight
27 Sep - 18:14:25 10° SW 18:18:51 80° NW 18:23:18 10° NE daylight
27 Sep - 19:57:43 10° WNW 20:01:07 21° NNW 20:04:31 10° NNE visible
27 Sep - 21:41:49 10° NNW 21:44:11 14° N 21:46:33 10° NE visible
27 Sep - 23:23:29 10° NNW 23:27:11 24° NNE 23:30:54 10° ENE night (unlit)
